Voltar ao catálogo

CZ-6A DEB

AtivoPO
NORAD 60620·DEBRIS·🇨🇳 China

Lançado Aug 6, 2024 de Taiyuan Satellite Launch Center

Loading…

Próximas Passagens (próximas 24 horas)

TLE

AtualizadoSource: Space-Track

Época: Sep 14, 2026, 17:35 UTC

1 60620U 24140V   26257.73324189  .00000304  00000-0  64563-4 0  9999
2 60620  89.0188 261.9525 0110803 317.5004  41.7664 14.52758962111508

Acompanhe CZ-6A DEB em tempo real com AllMySat

Download on the App Store